Location: Kuala Lumpur International
(3.1298°N, 101.5524°E)
Time: 19:41:36
(UTC+00:00)

Delta 168 - Pass Details

Date: 05 August 2024
Orbit: 392 x 1942 km, 25.3° (Epoch: 14 September)

Event Time Altitude Azimuth Distance (km) Brightness Sun altitude
Exits shadow 21:49:19 31° 300° (WNW) 1,281 4.3 -20.6°
Maximum altitude 21:51:54 86° 26° (NNE) 848 3.7 -20.0°
Drops below altitude 10° 21:59:17 10° 116° (ESE) 3,085 7.2 -18.3°
Sets 22:02:46 0° 116° (ESE) 4,330 8.1 -17.4°
